2023/10/03 00:00:00, 0.1,11.6
2023/10/03 00:10:00, 0.1,11.7
2023/10/03 00:20:00, 0.1,11.7
2023/10/03 00:30:00, 0.1,11.7
2023/10/03 00:40:00, 0.1,11.4
2023/10/03 00:50:00, 0.1,11.5
2023/10/03 01:00:00, 0.1,11.5
2023/10/03 01:10:00, 0.1,11.6
2023/10/03 01:20:00, 0.1,11.3
2023/10/03 01:30:00, 0.1,11.5
2023/10/03 01:40:00, 0.1,11.7
2023/10/03 01:50:00, 0.2,11.7
2023/10/03 02:00:00, 0.2,11.8
2023/10/03 02:10:00, 0.2,11.6
2023/10/03 02:20:00, 0.2,11.5
2023/10/03 02:30:00, 0.2,11.5
2023/10/03 02:40:00, 0.2,11.4
2023/10/03 02:50:00, 0.2,11.6
2023/10/03 03:00:00, 0.2,11.4
2023/10/03 03:10:00, 0.2,11.9
2023/10/03 03:20:00, 0.2,11.6
2023/10/03 03:30:00, 0.2,11.2
2023/10/03 03:40:00, 0.2,10.9
2023/10/03 03:50:00, 0.2,11.3
2023/10/03 04:00:00, 0.2,10.9
2023/10/03 04:10:00, 0.3,11.1
2023/10/03 04:20:00, 0.3,11.4
2023/10/03 04:30:00, 0.3,10.8
2023/10/03 04:40:00, 0.3,11.6
2023/10/03 04:50:00, 0.2,11.7
2023/10/03 05:00:00, 0.2,11.6
2023/10/03 05:10:00, 0.2,11.4
2023/10/03 05:20:00, 0.2,11.6
2023/10/03 05:30:00, 0.2,11.3
2023/10/03 05:40:00, 0.1,11.2
2023/10/03 05:50:00, 0.1,11.2
2023/10/03 06:00:00, 0.2,11.3
2023/10/03 06:10:00, 0.2,11.0
2023/10/03 06:20:00, 0.2,11.3
2023/10/03 06:30:00, 0.2,11.7
2023/10/03 06:40:00, 0.1,11.7
2023/10/03 06:50:00, 0.1,12.6
2023/10/03 07:00:00, 0.1,14.4
2023/10/03 07:10:00, 0.2,14.8
2023/10/03 07:20:00, 0.3,14.6
2023/10/03 07:30:00, 0.3,15.1
2023/10/03 07:40:00, 0.3,17.1
2023/10/03 07:50:00, 0.2,16.0
2023/10/03 08:00:00, 0.2,18.5
2023/10/03 08:10:00, 0.3,18.4
2023/10/03 08:20:00, 0.2,17.3
2023/10/03 08:30:00, 0.2,18.0
2023/10/03 08:40:00, 0.2,18.2
2023/10/03 08:50:00, 0.1,18.0
2023/10/03 09:00:00, 0.1,19.4
2023/10/03 09:10:00, 0.1,18.9
2023/10/03 09:20:00, 0.1,19.5
2023/10/03 09:30:00, 0.1,20.8
2023/10/03 09:40:00, 0.1,26.3
2023/10/03 09:50:00, 0.0,22.4
2023/10/03 10:00:00, 0.0,21.3
2023/10/03 10:10:00, 0.1,21.5
2023/10/03 10:20:00, 0.1,21.1
2023/10/03 10:30:00, 0.2,22.6
2023/10/03 10:40:00, 0.3,24.6
2023/10/03 10:50:00, 0.2,23.5
2023/10/03 11:00:00, 0.2,23.1
2023/10/03 11:10:00, 0.0,21.8
2023/10/03 11:20:00, 0.1,21.8
2023/10/03 11:30:00, 0.2,22.0
2023/10/03 11:40:00, 0.0,21.1
2023/10/03 11:50:00, 0.0,20.2
2023/10/03 12:00:00, 0.0,20.2
2023/10/03 12:10:00, 0.1,20.6
2023/10/03 12:20:00, 0.1,20.4
2023/10/03 12:30:00, 0.2,20.5
2023/10/03 12:40:00, 0.2,20.9
2023/10/03 12:50:00, 0.1,20.4
2023/10/03 13:00:00, 0.1,20.1
2023/10/03 13:10:00, 0.1,20.1
2023/10/03 13:20:00, 0.1,19.8
2023/10/03 13:30:00, 0.1,19.4
2023/10/03 13:40:00, 0.0,19.3
2023/10/03 13:50:00, 0.1,19.4
2023/10/03 14:00:00, 0.1,19.4
2023/10/03 14:10:00, 0.1,19.9
2023/10/03 14:20:00, 0.1,19.5
2023/10/03 14:30:00, 0.0,18.7
2023/10/03 14:40:00, 0.1,18.7
2023/10/03 14:50:00, 0.1,18.6
2023/10/03 15:00:00, 0.0,18.0
2023/10/03 15:10:00, 0.0,17.9
2023/10/03 15:20:00, 0.0,17.6
2023/10/03 15:30:00, 0.1,17.4
2023/10/03 15:40:00, 0.1,17.5
2023/10/03 15:50:00, 0.1,17.8
2023/10/03 16:00:00, 0.1,18.5
2023/10/03 16:10:00, 0.1,18.2
2023/10/03 16:20:00, 0.1,17.9
2023/10/03 16:30:00, 0.1,17.6
2023/10/03 16:40:00, 0.1,17.6
2023/10/03 16:50:00, 0.1,17.3
2023/10/03 17:00:00, 0.1,17.3
2023/10/03 17:10:00, 0.1,16.9
2023/10/03 17:20:00, 0.1,16.7
2023/10/03 17:30:00, 0.1,16.4
2023/10/03 17:40:00, 0.2,16.5
2023/10/03 17:50:00, 0.1,16.1
2023/10/03 18:00:00, 0.2,16.2
2023/10/03 18:10:00, 0.2,16.3
2023/10/03 18:20:00, 0.2,16.1
2023/10/03 18:30:00, 0.2,15.9
2023/10/03 18:40:00, 0.2,15.4
2023/10/03 18:50:00, 0.2,15.7
2023/10/03 19:00:00, 0.2,16.1
2023/10/03 19:10:00, 0.2,15.4
2023/10/03 19:20:00, 0.2,15.8
2023/10/03 19:30:00, 0.2,15.6
2023/10/03 19:40:00, 0.2,15.7
2023/10/03 19:50:00, 0.2,15.6
2023/10/03 20:00:00, 0.2,15.4
2023/10/03 20:10:00, 0.2,15.6
2023/10/03 20:20:00, 0.2,15.5
2023/10/03 20:30:00, 0.2,15.3
2023/10/03 20:40:00, 0.2,15.2
2023/10/03 20:50:00, 0.2,15.4
2023/10/03 21:00:00, 0.2,15.2
2023/10/03 21:10:00, 0.2,15.2
2023/10/03 21:20:00, 0.2,15.3
2023/10/03 21:30:00, 0.2,15.2
2023/10/03 21:40:00, 0.2,15.1
2023/10/03 21:50:00, 0.2,15.2
2023/10/03 22:00:00, 0.2,15.4
2023/10/03 22:10:00, 0.2,15.3
2023/10/03 22:20:00, 0.2,15.6
2023/10/03 22:30:00, 0.2,15.2
2023/10/03 22:40:00, 0.2,15.4
2023/10/03 22:50:00, 0.2,15.6
2023/10/03 23:00:00, 0.2,15.6
2023/10/03 23:10:00, 0.1,15.3
2023/10/03 23:20:00, 0.1,15.0
2023/10/03 23:30:00, 0.1,14.9
2023/10/03 23:40:00, 0.1,14.5
2023/10/03 23:50:00, 0.0,14.4
